Weather in Mamolayevo

Russia / Republic of Mordovia     54°17′51″N   43°57′45″E
temp.,
°C
wind,
m/s
gust,
m/s
humid.,
%
clouds,
%
prec.,
mm/h
press.,
hPa
HPBL,
m
28 february, sun
sun2800:00−16nnw369688 0.0 1011141
03:00−17nw359778 0.0 1013112
06:00−18nnw359755 0.0 1014101
09:00−16nnw359450 0.0 1014241
12:00−13nnw359082 0.0 1015416
15:00−11nw468990 0.0 1016520
18:00−14n239482 0.0 101730
21:00−16n239441 0.0 102022
1 march, mon
mon100:00−17nnw22960 0.0 102120
03:00−18nw22970 0.0 102220
06:00−18nw129820 0.0 102320
09:00−14nw139419 0.0 1025125
12:00−10w239082 0.0 1024303
15:00−7wsw369290 0.0 1023380
18:00−9sw379697 0.0 1021139
21:00−5sw5119498 0.1 1019503
2 march, tue
tue200:00−4sw61393100 0.2 1015473
03:00−2wsw71494100 1.8 1011651
06:00−1wsw71396100 0.8 1007673
09:000w71299100 2.5 1004792
12:000wnw51099100 1.1 1003626
15:000wnw51010093 1.5 1003674
18:00−1nw5128894 0.3 1004617
21:00−3wnw4129395 0.3 1005447
3 march, wed
wed300:00−3nw5129494 0.1 1005511
03:00−4nw5109597 0.3 1006507
06:00−5nw51195100 0.2 1006477
09:00−4nw61192100 0.5 1008709
12:00−4nw71190100 0.2 1010849
15:00−4nw71192100 0.5 1011965
18:00−5nw51192100 0.2 1013675
21:00−8nw4109399 0.3 1016266
4 march, thu
thu400:00−10wnw379624 0.0 1016123
03:00−11w359723 0.0 1016102
06:00−9wsw389794 0.1 1016174
09:00−5wsw5119195 0.1 1014454
12:00−2wsw71489100 0.0 1011676
15:00−1wsw8148698 0.0 1009791
18:00−2sw61587100 0.0 1008686
21:00−2wsw7178979 0.0 1006726